Tracking 25372 objects as of 24-Jan-2022
HD Live streaming from Space Station
objects crossing your sky now

LEASAT 4

Track LEASAT 4 now!
LEASAT 4 is classified as:


NORAD ID: 15995
Int'l Code: 1985-076D
Perigee: 36,476.2 km
Apogee: 36,526.1 km
Inclination: 12.2 °
Period: 1,472.4 minutes
Semi major axis: 42872 km
RCS: 16.7803 m2 (large)
Launch date: August 27, 1985
Source: United States (US)
Launch site: AIR FORCE EASTERN TEST RANGE (AFETR)
aabbcc
Your satellite tracking list
Your tracking list is empty




NASA's NSSDC Master Catalog

Two Line Element Set (TLE):
1 15995U 85076D   22023.30051279 -.00000162  00000-0  00000-0 0  9991
2 15995  12.1690 339.1075 0005818 339.0755  51.1655  0.97800191102430
Source of the keplerian elements: AFSPC